Location: Newark
(51.8900°N, 2.0780°W)
Time: 01:58:18
(UTC+00:00)

Envisat - Pass Details

Date: 25 November 2019
Orbit: 764 x 766 km, 98.1° (Epoch: 08 December)

Event Time Altitude Azimuth Distance (km) Brightness Sun altitude
Rises 05:35:13 0° 28° (NNE) 3,244 6.5 -19.2°
Reaches altitude 10° 05:38:36 10° 51° (NE) 2,311 6.0 -18.6°
Maximum altitude 05:41:26 15° 86° (E) 1,986 6.2 -18.2°
Drops below altitude 10° 05:44:16 10° 120° (ESE) 2,301 6.6 -17.8°
Sets 05:47:37 0° 143° (SE) 3,221 7.0 -17.3°
